Time,TemperatureF,DewpointF,PressureIn,WindDirection,WindDirectionDegrees,WindSpeedMPH,WindSpeedGustMPH,Humidity,HourlyPrecipIn,Conditions,Clouds,dailyrainin,SoftwareType,DateUTC
2013-10-28 09:29:00,37.4,30.0,30.23,SW,227,0.0,-999.0,76,-99.99,,,0.00,weatherlink.com 1.10,2013-10-28 13:29:00,
2013-10-28 09:37:00,38.3,31.0,30.23,SW,227,0.0,-999.0,76,-99.99,,,0.00,weatherlink.com 1.10,2013-10-28 13:37:00,
2013-10-28 09:53:00,40.1,33.0,30.23,SW,227,0.0,-999.0,77,-99.99,,,0.00,weatherlink.com 1.10,2013-10-28 13:53:00,
2013-10-28 10:08:00,42.4,36.0,30.23,SSW,204,0.0,-999.0,79,-99.99,,,0.00,weatherlink.com 1.10,2013-10-28 14:08:00,
2013-10-28 10:23:00,45.0,38.0,30.23,SSW,204,0.0,-999.0,76,-99.99,,,0.00,weatherlink.com 1.10,2013-10-28 14:23:00,
2013-10-28 10:38:00,47.2,39.0,30.22,NW,320,1.0,-999.0,72,-99.99,,,0.00,weatherlink.com 1.10,2013-10-28 14:38:00,
2013-10-28 10:53:00,49.5,37.0,30.22,WSW,250,0.0,-999.0,63,-99.99,,,0.00,weatherlink.com 1.10,2013-10-28 14:53:00,
2013-10-28 11:08:00,51.5,37.0,30.23,SSW,208,1.0,-999.0,57,-99.99,,,0.00,weatherlink.com 1.10,2013-10-28 15:08:00,
2013-10-28 11:23:00,52.7,36.0,30.22,NNW,344,0.0,-999.0,54,-99.99,,,0.00,weatherlink.com 1.10,2013-10-28 15:23:00,
2013-10-28 11:38:00,53.5,37.0,30.22,East,85,1.0,-999.0,54,-99.99,,,0.00,weatherlink.com 1.10,2013-10-28 15:38:00,
2013-10-28 11:54:00,54.7,37.0,30.21,WNW,301,0.0,-999.0,51,-99.99,,,0.00,weatherlink.com 1.10,2013-10-28 15:54:00,
2013-10-28 12:09:00,55.7,38.0,30.21,WNW,290,2.0,-999.0,51,-99.99,,,0.00,weatherlink.com 1.10,2013-10-28 16:09:00,
2013-10-28 12:24:00,56.3,37.0,30.20,NNW,342,1.0,-999.0,49,-99.99,,,0.00,weatherlink.com 1.10,2013-10-28 16:24:00,
2013-10-28 12:39:00,56.2,38.0,30.20,NW,311,4.0,-999.0,50,-99.99,,,0.00,weatherlink.com 1.10,2013-10-28 16:39:00,
2013-10-28 12:54:00,56.4,37.0,30.20,SW,221,1.0,-999.0,49,-99.99,,,0.00,weatherlink.com 1.10,2013-10-28 16:54:00,
2013-10-28 13:09:00,56.8,37.0,30.19,NW,311,0.0,-999.0,47,-99.99,,,0.00,weatherlink.com 1.10,2013-10-28 17:09:00,
2013-10-28 13:24:00,56.9,37.0,30.18,NW,321,2.0,-999.0,47,-99.99,,,0.00,weatherlink.com 1.10,2013-10-28 17:24:00,
2013-10-28 13:39:00,57.2,36.0,30.18,NW,321,0.0,-999.0,46,-99.99,,,0.00,weatherlink.com 1.10,2013-10-28 17:39:00,
2013-10-28 13:54:00,57.4,37.0,30.18,WSW,244,0.0,-999.0,46,-99.99,,,0.00,weatherlink.com 1.10,2013-10-28 17:54:00,
2013-10-28 14:09:00,58.0,37.0,30.18,NW,319,0.0,-999.0,45,-99.99,,,0.00,weatherlink.com 1.10,2013-10-28 18:09:00,
2013-10-28 14:24:00,57.9,36.0,30.18,WSW,246,0.0,-999.0,45,-99.99,,,0.00,weatherlink.com 1.10,2013-10-28 18:24:00,
2013-10-28 14:40:00,58.3,37.0,30.18,NW,309,0.0,-999.0,46,-99.99,,,0.00,weatherlink.com 1.10,2013-10-28 18:40:00,
2013-10-28 14:55:00,58.7,37.0,30.18,North,5,1.0,-999.0,44,-99.99,,,0.00,weatherlink.com 1.10,2013-10-28 18:55:00,
2013-10-28 15:10:00,58.8,37.0,30.18,NNW,332,0.0,-999.0,44,-99.99,,,0.00,weatherlink.com 1.10,2013-10-28 19:10:00,
2013-10-28 15:25:00,58.9,36.0,30.18,NW,323,5.0,-999.0,43,-99.99,,,0.00,weatherlink.com 1.10,2013-10-28 19:25:00,
2013-10-28 15:40:00,59.3,37.0,30.19,NW,304,0.0,-999.0,43,-99.99,,,0.00,weatherlink.com 1.10,2013-10-28 19:40:00,
2013-10-28 15:55:00,59.2,35.0,30.19,WNW,290,0.0,-999.0,41,-99.99,,,0.00,weatherlink.com 1.10,2013-10-28 19:55:00,
2013-10-28 16:10:00,59.2,35.0,30.19,NNE,16,1.0,-999.0,41,-99.99,,,0.00,weatherlink.com 1.10,2013-10-28 20:10:00,
2013-10-28 16:25:00,59.0,36.0,30.19,NW,325,1.0,-999.0,42,-99.99,,,0.00,weatherlink.com 1.10,2013-10-28 20:25:00,
2013-10-28 16:40:00,58.7,35.0,30.20,NW,322,5.0,-999.0,42,-99.99,,,0.00,weatherlink.com 1.10,2013-10-28 20:40:00,
2013-10-28 16:55:00,58.3,36.0,30.21,North,351,0.0,-999.0,44,-99.99,,,0.00,weatherlink.com 1.10,2013-10-28 20:55:00,
2013-10-28 17:10:00,57.9,36.0,30.21,WNW,300,1.0,-999.0,45,-99.99,,,0.00,weatherlink.com 1.10,2013-10-28 21:10:00,
2013-10-28 17:25:00,57.7,37.0,30.21,NW,309,0.0,-999.0,46,-99.99,,,0.00,weatherlink.com 1.10,2013-10-28 21:25:00,
2013-10-28 17:41:00,57.2,37.0,30.22,SSW,207,1.0,-999.0,47,-99.99,,,0.00,weatherlink.com 1.10,2013-10-28 21:41:00,
2013-10-28 17:56:00,56.9,37.0,30.23,NW,319,1.0,-999.0,48,-99.99,,,0.00,weatherlink.com 1.10,2013-10-28 21:56:00,
2013-10-28 18:11:00,56.6,37.0,30.24,North,350,0.0,-999.0,48,-99.99,,,0.00,weatherlink.com 1.10,2013-10-28 22:11:00,
2013-10-28 18:26:00,56.3,37.0,30.26,North,5,0.0,-999.0,49,-99.99,,,0.00,weatherlink.com 1.10,2013-10-28 22:26:00,
2013-10-28 18:41:00,55.8,37.0,30.26,NW,321,0.0,-999.0,50,-99.99,,,0.00,weatherlink.com 1.10,2013-10-28 22:41:00,
2013-10-28 18:56:00,55.4,37.0,30.27,NW,313,0.0,-999.0,51,-99.99,,,0.00,weatherlink.com 1.10,2013-10-28 22:56:00,
2013-10-28 19:11:00,54.6,37.0,30.27,North,9,0.0,-999.0,52,-99.99,,,0.00,weatherlink.com 1.10,2013-10-28 23:11:00,
2013-10-28 19:26:00,53.9,37.0,30.28,North,11,1.0,-999.0,53,-99.99,,,0.00,weatherlink.com 1.10,2013-10-28 23:26:00,
2013-10-28 19:41:00,53.5,37.0,30.28,North,355,0.0,-999.0,54,-99.99,,,0.00,weatherlink.com 1.10,2013-10-28 23:41:00,
2013-10-28 19:56:00,53.1,37.0,30.28,NNW,339,2.0,-999.0,55,-99.99,,,0.00,weatherlink.com 1.10,2013-10-28 23:56:00,
2013-10-28 20:11:00,52.7,37.0,30.29,NW,322,4.0,-999.0,55,-99.99,,,0.00,weatherlink.com 1.10,2013-10-29 00:11:00,
2013-10-28 20:26:00,52.5,37.0,30.29,NW,321,4.0,-999.0,55,-99.99,,,0.00,weatherlink.com 1.10,2013-10-29 00:26:00,
2013-10-28 20:42:00,52.3,36.0,30.29,North,5,0.0,-999.0,55,-99.99,,,0.00,weatherlink.com 1.10,2013-10-29 00:42:00,
2013-10-28 20:57:00,51.7,36.0,30.30,NNE,13,0.0,-999.0,56,-99.99,,,0.00,weatherlink.com 1.10,2013-10-29 00:57:00,
2013-10-28 21:12:00,51.3,37.0,30.30,North,10,0.0,-999.0,59,-99.99,,,0.00,weatherlink.com 1.10,2013-10-29 01:12:00,
2013-10-28 21:27:00,50.8,37.0,30.31,NNW,346,4.0,-999.0,60,-99.99,,,0.00,weatherlink.com 1.10,2013-10-29 01:27:00,
2013-10-28 21:42:00,50.2,37.0,30.31,North,351,0.0,-999.0,61,-99.99,,,0.00,weatherlink.com 1.10,2013-10-29 01:42:00,
2013-10-28 21:57:00,49.6,36.0,30.32,North,9,0.0,-999.0,60,-99.99,,,0.00,weatherlink.com 1.10,2013-10-29 01:57:00,
2013-10-28 22:12:00,48.9,34.0,30.32,NNW,340,0.0,-999.0,58,-99.99,,,0.00,weatherlink.com 1.10,2013-10-29 02:12:00,